Location: Christian Reformed Church
(43.0975°N, 93.8113°W)
Time: 23:11:53
(UTC+00:00)

IRS-P3 - Visible Passes

Search period start: 14 March 2026 00:00
Search period end: 24 March 2026 00:00
Orbit: 811 x 815 km, 99.0° (Epoch: 14 March)

Date Brightness Start Highest point End Pass type
(mag) Time Alt. Az. Time Alt. Az. Time Alt. Az.
14 Mar 7.3 02:05:06 10° WSW 02:07:18 12° W 02:09:32 10° WNW visible
15 Mar 6.8 01:40:13 10° SW 01:44:08 21° W 01:48:05 10° NW visible
16 Mar 6.1 01:16:19 10° SSW 01:21:03 33° W 01:25:50 10° NNW visible
16 Mar 7.9 11:54:20 10° ENE 11:55:24 11° E 11:56:28 10° E visible
17 Mar 5.1 00:52:52 10° S 00:58:04 52° W 01:03:16 10° NNW visible
18 Mar 7.5 02:15:00 10° W 02:15:47 10° W 02:16:35 10° W visible
19 Mar 7.0 01:49:06 10° SW 01:52:35 18° W 01:56:06 10° NW visible
20 Mar 6.4 01:24:57 10° SSW 01:29:29 28° W 01:34:02 10° NW visible
21 Mar 5.5 01:01:23 10° S 01:06:27 45° W 01:11:33 10° NNW visible
23 Mar 7.1 01:58:06 10° SW 02:01:03 15° W 02:04:01 10° NW visible
